Flag for U.S.A. Weather past 2 weeks in West Palm Beach, Florida, U.S.A.

75 °F

Passing clouds.

Feels Like: 77 °F
Forecast: 74 / 81 °F
Wind: 9 mph from East

Location: Palm Beach International Airport

Current Time: Nov 30, 2015 at 4:55:57 AM

Latest Report: Nov 30, 2015 at 3:53 AM

Visibility: 10 mi

Pressure: 29.99 "Hg

Humidity: 71%

Dew point: 65 °F

Location of West Palm BeachLocation

Historic Weather in West Palm Beach — Graph


West Palm Beach temperature yesterday

Maximum temperature yesterday: 81 °F (at 12:53 PM)
Minimum temperature yesterday: 62 °F (at 6:53 AM)
Average temperature yesterday: 74 °F

Past Weeks' High & Low Weather Summary

High86 °F (Nov 20, 12:53 PM)100% (Nov 22, 5:53 AM)30.33 "Hg (Nov 22, 5:53 AM)
Low61 °F (Nov 23, 6:53 AM)39% (Nov 28, 9:53 AM)29.78 "Hg (Nov 22, 1:53 PM)
Average76 °F70%30.08 "Hg
* Reported Nov 15 3:53 AM — Nov 30 3:53 AM, West Palm Beach, Weather by CustomWeather, © 2015

Note: Actual official high and low records may vary slightly from our data, if they occured in-between our weather recording intervals... More about our weather records


West Palm Beach weather history for previous 24 hours

Time TempWeatherWind HumidityBarometerVisibility
3:53 AM
Mon, Nov 30
75 °FPassing clouds.9 mph71%29.99 "Hg10 mi
2:53 AM75 °FPassing clouds.10 mph74%29.99 "Hg10 mi
1:53 AM75 °FPassing clouds.12 mph74%30.01 "Hg10 mi
12:53 AM76 °FPassing clouds.10 mph72%30.02 "Hg10 mi
11:53 PM
Sun, Nov 29
76 °FPassing clouds.10 mph69%30.03 "Hg10 mi
10:53 PM76 °FPassing clouds.10 mph72%30.03 "Hg10 mi
9:53 PM76 °FPassing clouds.13 mph69%30.04 "Hg10 mi
8:53 PM76 °FPartly cloudy.13 mph72%30.04 "Hg10 mi
7:53 PM75 °FLight rain. Passing clouds.7 mph74%30.03 "Hg10 mi
6:53 PM77 °FPassing clouds.13 mph66%30.03 "Hg10 mi
5:53 PM76 °FPassing clouds.10 mph69%30.01 "Hg10 mi
4:53 PM77 °FBroken clouds.12 mph60%30.01 "Hg10 mi
3:53 PM79 °FPartly sunny.14 mph58%30.01 "Hg10 mi
2:53 PM79 °FScattered clouds.14 mph56%30.01 "Hg10 mi
1:53 PM79 °FScattered clouds.13 mph52%30.02 "Hg10 mi
12:53 PM81 °FScattered clouds.15 mph53%30.05 "Hg10 mi
11:53 AM80 °FScattered clouds.14 mph54%30.08 "Hg10 mi
10:53 AM80 °FScattered clouds.15 mph54%30.09 "Hg10 mi
9:53 AM78 °FScattered clouds.17 mph54%30.11 "Hg10 mi
8:53 AM77 °FScattered clouds.13 mph58%30.10 "Hg10 mi
7:53 AM67 °FScattered clouds.5 mph90%30.09 "Hg10 mi
6:53 AM62 °FPassing clouds.6 mph93%30.09 "Hg10 mi
5:53 AM64 °FPassing clouds.8 mph90%30.06 "Hg10 mi
4:53 AM65 °FPassing clouds.6 mph91%30.06 "Hg10 mi
Weather by CustomWeather, © 2015

See weather overviewHow to use our weather pages